Regional Weather Roundup
Issued by NWS Charleston, SC

Current Version | Previous Version | Graphics & Text | Print | Product List | Glossary On
Versions: 1 2 3 4 5 6 7 8 9 10 11 12 13 14 15 16 17 18 19 20 21 22 23 24 25 26 27 28 29 30 31 32 33 34 35 36 37 38 39 40 41 42 43 44 45 46 47 48 49 50
266
ASUS42 KCHS 290928
RWRCHS

REGIONAL WEATHER ROUNDUP
NATIONAL WEATHER SERVICE CHARLESTON SC
500 AM EDT FRI APR 29 2016

NOTE: "FAIR" INDICATES FEW OR NO CLOUDS BELOW 12,000 FEET WITH NO
SIGNIFICANT WEATHER AND/OR OBSTRUCTIONS TO VISIBILITY.

NOT ALL STATIONS ARE QUALITY CONTROLLED. USE DATA WITH CAUTION...
ESPECIALLY DEWPOINT OBSERVATIONS.

SCZ027-030-031-034>040-042>050-291000-
...SOUTHEAST SOUTH CAROLINA...

CITY           SKY/WX    TMP DP  RH WIND       PRES   REMARKS
N CHARLESTON   CLEAR     69  66  90 W6        29.92R
WATERFRONT PRK   N/A     71  69  93 VRB3      29.90S
MOUNT PLEASANT FAIR      70  68  94 W5        29.93R
JOHNS ISLAND   FAIR      70  68  94 SW3       29.93R
PINOPOLIS        N/A     72  68  88 SW9       29.82R
MONCKS CORNER  FAIR      64  63  94 SW3       29.92R
SUMMERVILLE    FAIR      64  64 100 CALM      29.94R
BEAUFORT MCAS  CLEAR     69  67  93 W6        29.94R
BEAUFORT ARPT  FAIR      72  68  88 SW6       29.94R
HILTON HEAD IS CLEAR     72  70  94 SW3       29.96R
WALTERBORO     SUNNY     70  70 100 W6        29.94R
ALLENDALE      FAIR      70  68  94 CALM      29.93S

...SOUTHERN MIDLANDS AND PEE DEE...

CITY           SKY/WX    TMP DP  RH WIND       PRES   REMARKS
GEORGETOWN     FAIR      66  64  94 W5        29.92R
KINGSTREE      FAIR      64  63  94 CALM      29.91S FOG
ORANGEBURG     CLEAR     69  66  90 W6        29.92R
BARNWELL       FAIR      70  70 100 CALM      29.94S
AIKEN          FAIR      64  63  94 W5        29.98R
MANNING        NOT AVBL
COLUMBIA       CLEAR     67  64  90 CALM      29.92R
SUMTER         CLEAR     66  64  94 W5        29.90R
FLORENCE       CLEAR     67  65  93 W6        29.90R
MYRTLE BEACH   CLEAR     70  61  73 W10       29.91S
N MYRTLE BEACH CLEAR     70  67  90 W5        29.88R

$$

GAZ063-065-086>088-099>101-113>116-118-119-134>141-150-291000-
...SOUTHEAST GEORGIA...

CITY           SKY/WX    TMP DP  RH WIND       PRES   REMARKS
SAVANNAH ARPT  PTCLDY    70  66  87 SW7       29.96R
HUNTER AAF     CLEAR     70  69  99 W7        29.93R
FORT STEWART   PTCLDY    69  66  91 W3        29.94R
STATESBORO       N/A     70  70 100 CALM      29.96R FOG
SYLVANIA       SUNNY     67  67 100 CALM      29.96R FOG
CLAXTON        FAIR      64  64 100 SW3       29.96S FOG

...CSRA...CENTRAL AND FAR SOUTHEAST GEORGIA...

CITY           SKY/WX    TMP DP  RH WIND       PRES   REMARKS
THOMSON        CLEAR     67  67 100 CALM      30.00R
AUGUSTA-BUSH   PTCLDY    63  62  97 CALM      29.94R FOG
AUGUSTA-DANIEL CLEAR     71  65  81 W6        29.94R
SWAINSBORO     FAIR      68  66  94 W3        29.97R FOG
VIDALIA        CLEAR     66  64  94 W3        29.97R FOG
EASTMAN        FAIR     N/A N/A N/A CALM      30.00R HAZE
HAZLEHURST     FAIR      69  69 100 SW3       29.97R FOG
ALMA           FOG       69  69 100 W3        29.98R VSB 1/2
WAYCROSS       CLOUDY    69  69 100 W6        29.99R FOG
JESUP          FOG       70  68  94 CALM      29.97S VSB 1/4
BAXLEY         FAIR      66  66 100 CALM      29.98R FOG
BRUNSWICK      MOCLDY    70  68  94 W6        29.98R
SAINT SIMONS   PTCLDY    70  69  97 W6        29.96R

$$

SCZ027-028-034-036>038-045-046-048>050-GAZ119-141-291000-
...LAKE AND SUPPLEMENTAL COASTAL OBSERVATIONS...

STATION/POSITION TIME  TEMP    WIND        PRES    WAVE   SWELL
                       AIR SEA DIR/SP/G            HT/PER HT/PER/DIR
                 (UTC) (F)     (DEG/KT/KT) (MB)    (FT/S) (FT/S/D)
WINYAH BAY       0845   70     260/  6     1012.0R
LAKE MURRAY      0800   71     270/  5/  6 1012.5R
ACE BASIN NERRS  0845   71     230/  2     1014.0R
FORT PULASKI     0900   72 72  240/  5/  8 1014.4R
SAPELO ISLAND    0900   71     240/  4     1015.0R

$$

ANZ835-935-AMZ111-154-330-350-352-354-370-450-454-472-291000-
...C-MAN AND BUOY OBSERVATIONS...

STATION/POSITION TIME  TEMP    WIND        PRES    WAVE   SWELL
                       AIR SEA DIR/SP/G            HT/PER HT/PER/DIR
                 (UTC) (F)     (DEG/KT/KT) (MB)    (FT/S) (FT/S/D)
BUOY 41004       0850   73 72  230/ 12/ 14 1012.8R   3/ 4   2/ 8
BUOY 41008       NOT AVBL
FOLLY BEACH CMAN 0900   70     230/  5/  7 1013.5R
CAPERS NEARSHORE 0808   70 69  240/ 10/ 16 1012.8R
FRIPP NEARSHORE  0908   72 71  260/  8/ 10 1013.3R


STATION/POSITION TIME  TEMP    WIND        PRES    WAVE   SWELL
                       AIR SEA DIR/SP/G            HT/PER HT/PER/DIR
                 (UTC) (F)     (DEG/KT/KT) (MB)    (FT/S) (FT/S/D)
5E ST. MARYS GA  0821      72                N/A     1/ 9
FRYING PAN BUOY  0900   72 69  240/ 14/ 17 1011.6F
BUOY 41025       0850   66 71   10/ 10/ 14 1011.3S   3/ 6   2/180/ 6
CAPE LOOKOUT NC  0900   68     270/  6/  7 1011.1F
BUOY 41002       0850   71 71  200/ 10/ 12 1014.8R   2/10   2/ 80/10
BUOY 41010       0820   75 76  200/ 10/ 10 1015.2R
ST AUGUSTINE FL  0900   71 69  280/  6/  7 1015.5S


$$




USA.gov is the U.S. government's official web portal to all federal, state and local government web resources and services.